Volver al catálogo

USA 173 DEB

ActivoLEO
NORAD 28097·DEBRIS·🇺🇸 United States

Lanzado Dec 2, 2003 desde Vandenberg Space Force Base

Loading…

Próximos Pases (próximas 24 horas)

TLE

EnvejeciendoSource: Mike McCants

Época: Sep 10, 2026, 01:44 UTC

1 28097U 03054C   26253.07289672 0.00000060  00000-0  36307-4 0    09
2 28097  63.3830 328.8604 0603047   8.1256 351.8744 13.41321231    07

Sigue USA 173 DEB en tiempo real con AllMySat

Download on the App Store